Volver al catálogo

STARLINK-35364

ActivoComunicacionesVLEO
NORAD 65840·PAYLOAD·🇺🇸 United States

Lanzado Sep 29, 2025 desde Vandenberg Space Force Base

Loading…

Próximos Pases (próximas 24 horas)

TLE

ActualizadoSource: CelesTrak SupGP

Época: Sep 15, 2026, 04:07 UTC

1 65840C 25221T   26258.17201389 -.00015635  00000+0 -46184-3 0  2584
2 65840  53.1587 284.2778 0001388  90.5581 120.9754 15.34404456    15

Sigue STARLINK-35364 en tiempo real con AllMySat

Download on the App Store